ESEO (43792 NORAD) Tracking and Keplerian Element Data

This shows tracking and keplerian element data for the satellite.

Feedback or suggestion? Click here.




ElementValue
Catalog43792
NameESEO
Epoch Orbit4191
Epoch Day254.84103964
Epoch Year2019
RAAN325.8809
Inclination97.7379
Eccentricity0.0014486
Argument of Perigee50.2096
Mean Anonmoly310.0398
Mean Motion14.95526258
Decay Rate-3.24E-06
L11 43792U 18099AL 19254.84103964 -.00000324 00000-0 -23959-4 0 9991
L22 43792 97.7379 325.8809 0014486 50.2096 310.0398 14.95526258 41915

Live tracking and technical data element details for ESEO (NORAD 43792). ESEO can be tracked NOW for your location showing map with azimuth and elevation plus other details from your city location.

Track the satellite on the map from your city or location and see movement details for azimuth, elevation, latitude, longitude, range, height, and movement on the map or in text.







IsCatalogInMostPopularTable: catalog: 43792, numindb: 112
Update: records affected: 1



GetName: 43792 ESEO

Hit Count: updated at: Tue, 17 Sep 2019 21:21:36 GMT